TimeCST,TemperatureF,Dew PointF,Humidity,Sea Level PressureIn,VisibilityMPH,Wind Direction,Wind SpeedMPH,Gust SpeedMPH,PrecipitationIn,Events,Conditions,WindDirDegrees,DateUTC
12:53 AM,16.0,7.0,68,30.38,10.0,East,5.8,-,N/A,,Clear,90,2013-01-22 06:53:00
1:53 AM,16.0,6.1,65,30.38,10.0,ENE,6.9,-,N/A,,Partly Cloudy,70,2013-01-22 07:53:00
2:53 AM,16.0,7.0,68,30.39,10.0,NE,8.1,-,N/A,,Clear,50,2013-01-22 08:53:00
3:53 AM,16.0,7.0,68,30.37,10.0,East,9.2,-,N/A,,Clear,80,2013-01-22 09:53:00
4:53 AM,14.0,7.0,74,30.35,10.0,East,6.9,-,N/A,,Clear,80,2013-01-22 10:53:00
5:53 AM,14.0,7.0,74,30.36,10.0,East,5.8,-,N/A,,Clear,90,2013-01-22 11:53:00
6:53 AM,12.0,7.0,80,30.37,10.0,East,3.5,-,N/A,,Clear,80,2013-01-22 12:53:00
7:53 AM,12.9,8.1,81,30.36,10.0,East,8.1,-,N/A,,Clear,80,2013-01-22 13:53:00
8:53 AM,17.1,9.0,71,30.40,10.0,ENE,11.5,-,N/A,,Clear,70,2013-01-22 14:53:00
9:53 AM,19.9,9.0,62,30.40,10.0,East,12.7,-,N/A,,Clear,90,2013-01-22 15:53:00
10:53 AM,24.1,9.0,53,30.39,10.0,East,12.7,-,N/A,,Clear,100,2013-01-22 16:53:00
11:53 AM,27.0,10.9,51,30.37,10.0,East,13.8,-,N/A,,Clear,100,2013-01-22 17:53:00
12:53 PM,30.0,10.9,45,30.33,10.0,East,9.2,-,N/A,,Clear,100,2013-01-22 18:53:00
1:53 PM,32.0,12.0,44,30.29,10.0,ESE,11.5,-,N/A,,Clear,120,2013-01-22 19:53:00
2:53 PM,34.0,12.9,42,30.27,10.0,ESE,6.9,-,N/A,,Clear,120,2013-01-22 20:53:00
3:53 PM,35.1,12.9,40,30.27,10.0,SE,4.6,-,N/A,,Clear,130,2013-01-22 21:53:00
4:53 PM,35.1,14.0,42,30.27,10.0,ESE,5.8,-,N/A,,Clear,120,2013-01-22 22:53:00
5:53 PM,30.9,12.9,47,30.28,10.0,East,4.6,-,N/A,,Clear,100,2013-01-22 23:53:00
6:53 PM,24.1,12.9,62,30.28,10.0,ESE,8.1,-,N/A,,Clear,110,2013-01-23 00:53:00
7:53 PM,24.1,12.9,62,30.29,10.0,East,5.8,-,N/A,,Clear,80,2013-01-23 01:53:00
8:53 PM,24.1,12.9,62,30.31,10.0,ENE,4.6,-,N/A,,Clear,60,2013-01-23 02:53:00
9:53 PM,23.0,12.9,65,30.30,10.0,ESE,4.6,-,N/A,,Clear,120,2013-01-23 03:53:00
10:53 PM,23.0,12.9,65,30.31,10.0,Calm,Calm,-,N/A,,Clear,0,2013-01-23 04:53:00
11:53 PM,21.9,12.9,68,30.30,10.0,Calm,Calm,-,N/A,,Clear,0,2013-01-23 05:53:00